Location: Brede
(50.9167°N, 0.6000°E)
Time: 18:05:10
(UTC+00:00)

Vanguard 2 - All Passes

Search period start: 04 December 2020 00:00
Search period end: 14 December 2020 00:00
Orbit: 554 x 2937 km, 32.9° (Epoch: 04 December)

Date Brightness Start Highest point End Pass type
(mag) Time Alt. Az. Time Alt. Az. Time Alt. Az.
04 Dec - 07:40:49 10° S 07:43:21 12° S 07:45:35 10° SSE daylight
04 Dec - 09:48:30 10° SSW 09:50:55 12° S 09:53:02 10° SSE daylight
05 Dec - 07:56:48 10° SSW 08:00:54 14° S 08:04:15 10° SE daylight
05 Dec - 10:05:58 10° SW 10:08:22 12° SSW 10:10:27 10° S daylight
06 Dec - 06:07:06 10° S 06:10:21 12° SSE 06:13:14 10° SE visible
06 Dec - 08:13:31 10° SW 08:18:26 16° S 08:22:17 10° SE daylight
06 Dec - 10:23:52 10° SW 10:25:46 11° SSW 10:27:28 10° S daylight
07 Dec - 06:22:20 10° SSW 06:27:55 15° SSE 06:32:23 10° SE visible
07 Dec - 08:30:37 10° SW 08:35:57 18° S 08:40:01 10° SE daylight
08 Dec - 04:35:31 10° SSE 04:36:56 10° SSE 04:38:17 10° SSE visible
08 Dec - 06:38:35 10° SSW 06:45:30 19° S 06:50:43 10° SE visible
08 Dec - 08:47:58 10° SW 08:53:24 18° S 08:57:33 10° SSE daylight
09 Dec - 04:48:27 10° S 04:54:27 14° SSE 04:59:27 10° SE visible
09 Dec - 06:55:18 10° SW 07:03:02 21° S 07:08:41 10° SE visible
09 Dec - 09:05:32 10° SW 09:10:50 18° SSW 09:14:53 10° SSE daylight
10 Dec - 05:03:52 10° SSW 05:12:00 18° SSE 05:18:18 10° ESE visible
10 Dec - 07:12:20 10° SW 07:20:34 23° S 07:26:25 10° SE visible
10 Dec - 09:23:20 10° WSW 09:28:11 16° SSW 09:31:59 10° SSE daylight
11 Dec - 03:16:33 10° SSE 03:20:35 12° SSE 03:24:15 10° SE visible
11 Dec - 05:20:04 10° SSW 05:29:33 22° SSE 05:36:35 10° ESE visible
11 Dec - 07:29:36 10° SW 07:38:04 24° S 07:44:00 10° SE daylight
11 Dec - 09:41:26 10° WSW 09:45:28 14° SSW 09:48:45 10° S daylight
12 Dec - 03:30:11 10° S 03:38:02 16° SSE 03:44:37 10° ESE visible
12 Dec - 05:36:41 10° SW 05:47:05 25° S 05:54:33 10° ESE visible
12 Dec - 07:47:04 10° WSW 07:55:30 24° SSW 08:01:26 10° SE daylight
12 Dec - 10:00:09 10° SW 10:02:40 12° SSW 10:04:53 10° SSW daylight
13 Dec - 03:45:29 10° SSW 03:55:30 20° SSE 04:03:29 10° ESE visible
13 Dec - 05:53:38 10° SW 06:04:36 28° S 06:12:19 10° ESE visible
13 Dec - 08:04:42 10° WSW 08:12:53 23° SSW 08:18:42 10° SSE daylight
